Location: Peebles
(55.6412°N, 3.1714°W)
Time: 12:18:19
(UTC+00:00)

CUTE-I - Pass Details

Date: 15 December 2023
Orbit: 807 x 823 km, 98.7° (Epoch: 24 February)

Event Time Altitude Azimuth Distance (km) Brightness Sun altitude
Rises 06:30:34 0° 17° (NNE) 3,370 ? -15.9°
Reaches altitude 10° 06:32:58 10° 22° (NNE) 2,434 ? -15.6°
Maximum altitude 06:38:18 60° 102° (ESE) 939 ? -14.9°
Drops below altitude 10° 06:43:36 10° 183° (S) 2,420 ? -14.2°
Sets 06:45:59 0° 187° (S) 3,348 ? -13.9°
